TimeCDT,TemperatureF,Dew PointF,Humidity,Sea Level PressureIn,VisibilityMPH,Wind Direction,Wind SpeedMPH,Gust SpeedMPH,PrecipitationIn,Events,Conditions,WindDirDegrees,DateUTC
12:15 AM,69.8,64.4,83,30.15,10.0,SE,3.5,-,N/A,,Clear,130,2013-06-23 05:15:00
12:35 AM,69.8,64.4,83,30.14,10.0,Calm,Calm,-,N/A,,Scattered Clouds,0,2013-06-23 05:35:00
12:55 AM,69.8,64.4,83,30.14,10.0,Calm,Calm,-,N/A,,Scattered Clouds,0,2013-06-23 05:55:00
1:15 AM,69.8,64.4,83,30.13,10.0,Calm,Calm,-,N/A,,Overcast,0,2013-06-23 06:15:00
1:35 AM,69.8,64.4,83,30.13,10.0,East,3.5,-,N/A,,Overcast,80,2013-06-23 06:35:00
1:55 AM,69.8,64.4,83,30.12,10.0,ESE,4.6,-,N/A,,Overcast,110,2013-06-23 06:55:00
2:15 AM,69.8,64.4,83,30.12,10.0,East,6.9,-,N/A,,Overcast,100,2013-06-23 07:15:00
2:35 AM,69.8,64.4,83,30.12,10.0,East,6.9,-,N/A,,Overcast,100,2013-06-23 07:35:00
2:55 AM,69.8,64.4,83,30.12,10.0,SE,4.6,-,N/A,,Overcast,130,2013-06-23 07:55:00
3:15 AM,69.8,64.4,83,30.12,10.0,East,6.9,-,N/A,,Overcast,90,2013-06-23 08:15:00
3:35 AM,69.8,64.4,83,30.12,10.0,East,8.1,-,N/A,,Overcast,100,2013-06-23 08:35:00
3:55 AM,69.8,66.2,88,30.12,10.0,ESE,5.8,-,N/A,,Overcast,110,2013-06-23 08:55:00
4:15 AM,69.8,66.2,88,30.12,10.0,SE,6.9,-,N/A,,Overcast,130,2013-06-23 09:15:00
4:35 AM,69.8,66.2,88,30.12,10.0,SE,9.2,-,N/A,,Overcast,130,2013-06-23 09:35:00
4:55 AM,69.8,66.2,88,30.12,10.0,SE,4.6,-,N/A,,Overcast,130,2013-06-23 09:55:00
5:15 AM,69.8,66.2,88,30.13,10.0,SE,4.6,-,N/A,,Overcast,130,2013-06-23 10:15:00
5:35 AM,69.8,66.2,88,30.14,10.0,SE,4.6,-,N/A,,Overcast,130,2013-06-23 10:35:00
5:55 AM,69.8,66.2,88,30.15,10.0,SSE,6.9,-,N/A,,Overcast,150,2013-06-23 10:55:00
6:15 AM,69.8,66.2,88,30.15,10.0,SE,5.8,-,N/A,,Overcast,140,2013-06-23 11:15:00
6:35 AM,69.8,66.2,88,30.15,9.0,ESE,6.9,-,N/A,,Overcast,120,2013-06-23 11:35:00
6:55 AM,69.8,66.2,88,30.16,10.0,SE,5.8,-,N/A,,Overcast,130,2013-06-23 11:55:00
7:15 AM,69.8,66.2,88,30.18,10.0,ESE,4.6,-,N/A,,Overcast,110,2013-06-23 12:15:00
7:35 AM,69.8,66.2,88,30.18,10.0,SE,4.6,-,N/A,,Overcast,140,2013-06-23 12:35:00
7:55 AM,69.8,66.2,88,30.18,10.0,SE,5.8,-,N/A,,Overcast,130,2013-06-23 12:55:00
8:15 AM,71.6,66.2,83,30.19,10.0,East,4.6,-,N/A,,Overcast,100,2013-06-23 13:15:00
8:35 AM,71.6,66.2,83,30.19,10.0,ESE,4.6,-,N/A,,Overcast,120,2013-06-23 13:35:00
8:55 AM,71.6,66.2,83,30.19,10.0,ESE,5.8,-,N/A,,Overcast,110,2013-06-23 13:55:00
9:15 AM,73.4,66.2,78,30.19,10.0,SSE,3.5,-,N/A,,Overcast,160,2013-06-23 14:15:00
9:36 AM,73.4,66.2,78,30.19,10.0,SE,5.8,-,N/A,,Overcast,130,2013-06-23 14:36:00
9:55 AM,73.4,66.2,78,30.20,10.0,ESE,3.5,-,N/A,,Overcast,120,2013-06-23 14:55:00
10:15 AM,73.4,66.2,78,30.21,10.0,SE,4.6,-,N/A,,Overcast,140,2013-06-23 15:15:00
10:35 AM,73.4,66.2,78,30.21,10.0,SE,6.9,-,N/A,,Overcast,140,2013-06-23 15:35:00
10:55 AM,75.2,68.0,78,30.21,10.0,SSE,4.6,-,N/A,,Overcast,160,2013-06-23 15:55:00
11:15 AM,75.2,68.0,78,30.20,10.0,SE,6.9,-,N/A,,Overcast,140,2013-06-23 16:15:00
11:35 AM,75.2,68.0,78,30.20,10.0,Calm,Calm,-,N/A,,Mostly Cloudy,0,2013-06-23 16:35:00
11:55 AM,78.8,69.8,74,30.19,10.0,Calm,Calm,-,N/A,,Mostly Cloudy,0,2013-06-23 16:55:00
12:15 PM,78.8,68.0,69,30.19,10.0,SSE,3.5,-,N/A,,Scattered Clouds,160,2013-06-23 17:15:00
12:35 PM,80.6,66.2,61,30.18,10.0,East,5.8,-,N/A,,Mostly Cloudy,100,2013-06-23 17:35:00
12:55 PM,82.4,68.0,62,30.17,10.0,ENE,4.6,-,N/A,,Mostly Cloudy,70,2013-06-23 17:55:00
1:15 PM,82.4,66.2,58,30.17,10.0,Calm,Calm,-,N/A,,Mostly Cloudy,0,2013-06-23 18:15:00
1:35 PM,80.6,68.0,65,30.16,10.0,SE,6.9,-,N/A,,Mostly Cloudy,130,2013-06-23 18:35:00
1:55 PM,82.4,66.2,58,30.15,10.0,ENE,3.5,-,N/A,,Mostly Cloudy,70,2013-06-23 18:55:00
2:15 PM,80.6,68.0,65,30.14,10.0,SSE,8.1,-,N/A,,Mostly Cloudy,150,2013-06-23 19:15:00
2:35 PM,82.4,68.0,62,30.14,10.0,ESE,5.8,-,N/A,,Mostly Cloudy,110,2013-06-23 19:35:00
2:55 PM,82.4,66.2,58,30.13,10.0,ESE,4.6,-,N/A,,Mostly Cloudy,120,2013-06-23 19:55:00
3:15 PM,82.4,66.2,58,30.13,10.0,South,3.5,-,N/A,,Scattered Clouds,180,2013-06-23 20:15:00
3:35 PM,84.2,66.2,55,30.13,10.0,SSE,8.1,-,N/A,,Partly Cloudy,150,2013-06-23 20:35:00
3:55 PM,78.8,66.2,65,30.14,10.0,SSE,16.1,21.9,N/A,,Mostly Cloudy,160,2013-06-23 20:55:00
4:35 PM,75.2,66.2,73,30.13,10.0,South,8.1,-,N/A,,Scattered Clouds,180,2013-06-23 21:35:00
4:55 PM,75.2,66.2,73,30.13,10.0,SSE,3.5,-,N/A,,Partly Cloudy,150,2013-06-23 21:55:00
5:15 PM,75.2,66.2,73,30.12,10.0,ESE,5.8,-,N/A,,Partly Cloudy,120,2013-06-23 22:15:00
5:35 PM,75.2,66.2,73,30.12,10.0,South,5.8,-,N/A,,Clear,190,2013-06-23 22:35:00
5:55 PM,75.2,68.0,78,30.14,10.0,SSE,6.9,-,N/A,,Partly Cloudy,160,2013-06-23 22:55:00
6:15 PM,75.2,68.0,78,30.14,10.0,SSE,8.1,-,N/A,,Partly Cloudy,150,2013-06-23 23:15:00
6:35 PM,75.2,68.0,78,30.14,10.0,SSE,6.9,-,N/A,,Clear,160,2013-06-23 23:35:00
6:55 PM,75.2,68.0,78,30.14,10.0,South,8.1,-,N/A,,Clear,180,2013-06-23 23:55:00
7:15 PM,73.4,68.0,83,30.14,10.0,SSE,4.6,-,N/A,,Clear,160,2013-06-24 00:15:00
7:35 PM,73.4,69.8,88,30.14,10.0,SSE,5.8,-,N/A,,Clear,160,2013-06-24 00:35:00
7:55 PM,73.4,69.8,88,30.14,10.0,SE,4.6,-,N/A,,Clear,140,2013-06-24 00:55:00
8:15 PM,73.4,69.8,88,30.15,10.0,SE,3.5,-,N/A,,Clear,140,2013-06-24 01:15:00
8:35 PM,73.4,69.8,88,30.16,10.0,Calm,Calm,-,N/A,,Clear,0,2013-06-24 01:35:00
8:55 PM,73.4,69.8,88,30.16,10.0,SE,4.6,-,N/A,,Clear,140,2013-06-24 01:55:00
9:15 PM,71.6,69.8,94,30.16,10.0,SSE,6.9,-,N/A,,Clear,150,2013-06-24 02:15:00
9:35 PM,71.6,69.8,94,30.16,10.0,SSE,3.5,-,N/A,,Clear,160,2013-06-24 02:35:00
9:55 PM,71.6,69.8,94,30.16,10.0,SE,4.6,-,N/A,,Partly Cloudy,130,2013-06-24 02:55:00
10:15 PM,71.6,69.8,94,30.17,10.0,SE,3.5,-,N/A,,Partly Cloudy,130,2013-06-24 03:15:00
10:35 PM,71.6,69.8,94,30.17,10.0,SSE,5.8,-,N/A,,Partly Cloudy,150,2013-06-24 03:35:00
10:55 PM,71.6,69.8,94,30.18,10.0,SSE,5.8,-,N/A,,Clear,160,2013-06-24 03:55:00
11:15 PM,71.6,69.8,94,30.18,10.0,SSE,5.8,-,N/A,,Clear,160,2013-06-24 04:15:00
11:35 PM,71.6,69.8,94,30.18,10.0,SSE,4.6,-,N/A,,Clear,160,2013-06-24 04:35:00
11:55 PM,71.6,69.8,94,30.19,10.0,Calm,Calm,-,N/A,,Partly Cloudy,0,2013-06-24 04:55:00